Date String (YYYY-MM-DD hh:mm:ss) UTC,Instrument flags,absolute air pressure of the measurement (hPa),sample flow rate (lpm),inlet stack bypass flow (lpm),air temperature of the measurement (°C),ambient temperature measured by the external sensor (°C),aerosol sample conditioner tube jacket temperature (°C),OPC LED temperature (°C),internal box temperature (°C),relative humidity of the measurement (%),span deviation,mass concentration of particles derived from Lorenz-Mie calculation of OPC scattering (μg/m³),mass concentration of particles derived from Lorenz-Mie calculation of OPC scattering (μg/m³),mass concentration of particles derived from Lorenz-Mie calculation of OPC scattering (μg/m³)
DateTimeUTC,F1_M11,P_M11,Q1_M11,Q2_M11,T1_M11,T2_M11,T3_M11,T4_M11,T5_M11,U1_M11,ZSPAN_M11,X0_M11,X2_M11,X1_M11
2023-10-27 19:00:00,SystemResetWarning,0832.6,5.00,000.00,021.0,019.8,000.0,029.5,022.6,16.0,0000.2,0019.74,0009.32,0008.12
2023-10-27 19:01:00,SystemResetWarning,0832.6,4.99,000.00,021.0,019.9,000.0,029.5,022.7,15.9,0000.0,0019.17,0009.30,0008.15
2023-10-27 19:02:00,SystemResetWarning,0832.6,5.00,000.00,021.1,019.9,000.0,029.5,022.7,15.9,-000.6,0017.43,0009.17,0008.17
2023-10-27 19:03:00,SystemResetWarning,0832.5,5.01,000.00,021.1,019.9,000.0,029.5,022.8,15.6,-000.7,0016.53,0009.02,0008.14
2023-10-27 19:04:00,SystemResetWarning,0832.5,5.01,000.00,021.1,020.0,000.0,029.5,022.8,15.6,-000.7,0015.80,0008.99,0008.12
2023-10-27 19:05:00,SystemResetWarning,0832.5,5.00,000.00,021.1,020.0,000.0,029.5,022.8,15.5,-000.5,0015.16,0008.97,0008.11
2023-10-27 19:06:00,SystemResetWarning,0832.5,4.99,000.00,021.2,020.0,000.0,029.5,022.8,15.8,-001.3,0015.05,0008.93,0008.08
2023-10-27 19:07:00,SystemResetWarning,0832.5,4.99,000.00,021.2,020.1,000.0,029.5,022.8,16.0,-001.0,0014.17,0008.75,0008.03
2023-10-27 19:08:00,SystemResetWarning,0832.4,4.99,000.00,021.2,020.1,000.0,029.6,022.9,15.9,-001.0,0013.12,0008.63,0007.98
2023-10-27 19:09:00,SystemResetWarning,0832.5,5.00,000.00,021.2,020.1,000.0,029.6,022.9,16.0,-001.5,0013.32,0008.57,0007.95
2023-10-27 19:10:00,SystemResetWarning,0832.4,5.00,000.00,021.2,020.2,000.0,029.6,022.9,15.9,-001.2,0013.56,0008.58,0007.92
2023-10-27 19:11:00,SystemResetWarning,0832.3,5.01,000.00,021.3,020.2,000.0,029.6,023.0,15.8,-001.0,0013.50,0008.66,0007.85
2023-10-27 19:12:00,SystemResetWarning,0832.3,5.00,000.00,021.3,020.3,000.0,029.6,023.0,15.6,-000.8,0013.56,0008.72,0007.79
2023-10-27 19:13:00,SystemResetWarning,0832.2,5.00,000.00,021.3,020.3,000.0,029.6,023.0,15.2,-000.7,0013.38,0008.68,0007.71
2023-10-27 19:14:00,SystemResetWarning,0832.2,5.00,000.00,021.3,020.2,000.0,029.6,023.0,15.1,-000.1,0013.43,0008.63,0007.64
2023-10-27 19:15:00,SystemResetWarning,0832.2,4.99,000.00,021.3,020.2,000.0,029.6,023.0,15.1,-000.9,0013.38,0008.57,0007.59
2023-10-27 19:16:00,SystemResetWarning,0832.2,5.00,000.00,021.3,020.2,000.0,029.6,022.9,15.0,-002.0,0013.27,0008.50,0007.53
2023-10-27 19:17:00,SystemResetWarning,0832.2,5.00,000.00,021.3,020.2,000.0,029.7,022.9,15.0,-001.7,0013.25,0008.47,0007.48
2023-10-27 19:18:00,SystemResetWarning,0832.2,5.00,000.00,021.3,020.2,000.0,029.7,023.0,15.0,-000.8,0013.19,0008.44,0007.45
2023-10-27 19:19:00,SystemResetWarning,0832.2,5.00,000.00,021.3,020.2,000.0,029.7,023.0,15.0,-000.4,0012.86,0008.37,0007.41
2023-10-27 19:20:00,SystemResetWarning,0832.2,5.00,000.00,021.3,020.2,000.0,029.7,023.0,15.1,0000.2,0012.21,0008.28,0007.35
2023-10-27 19:21:00,SystemResetWarning,0832.2,5.00,000.00,021.3,020.2,000.0,029.7,023.0,15.0,0000.0,0011.83,0008.12,0007.30
2023-10-27 19:22:00,SystemResetWarning,0832.1,5.01,000.00,021.3,020.2,000.0,029.7,023.0,15.0,0000.3,0010.58,0007.83,0007.24
2023-10-27 19:23:00,SystemResetWarning,0832.2,5.00,000.00,021.4,020.2,000.0,029.7,023.0,15.0,0000.7,0010.11,0007.65,0007.21
2023-10-27 19:24:00,SystemResetWarning,0832.2,5.00,000.00,021.4,020.3,000.0,029.7,023.1,14.8,0000.6,0009.90,0007.58,0007.20
2023-10-27 19:25:00,SystemResetWarning,0832.2,5.00,000.00,021.4,020.3,000.0,029.8,023.1,14.9,0000.6,0010.52,0007.57,0007.21
2023-10-27 19:26:00,SystemResetWarning,0832.2,5.00,000.00,021.4,020.4,000.0,029.8,023.1,14.7,0001.7,0011.15,0007.63,0007.26
2023-10-27 19:27:00,SystemResetWarning,0832.2,5.00,000.00,021.5,020.4,000.0,029.8,023.1,14.8,0001.5,0011.24,0007.71,0007.33
2023-10-27 19:28:00,SystemResetWarning,0832.2,5.00,000.00,021.5,020.4,000.0,029.8,023.1,14.7,0000.7,0011.67,0007.77,0007.37
2023-10-27 19:29:00,SystemResetWarning,0832.2,5.00,000.00,021.5,020.4,000.0,029.8,023.1,14.5,-000.4,0012.50,0007.81,0007.40
2023-10-27 19:30:00,SystemResetWarning,0832.1,5.00,000.00,021.5,020.4,000.0,029.8,023.1,14.5,-001.2,0013.50,0007.90,0007.43
2023-10-27 19:31:00,SystemResetWarning,0832.1,5.00,000.00,021.5,020.4,000.0,029.8,023.2,14.8,-001.6,0014.35,0007.96,0007.47
2023-10-27 19:32:00,SystemResetWarning,0832.0,5.00,000.00,021.5,020.4,000.0,029.8,023.2,14.6,-002.1,0014.46,0008.02,0007.54
2023-10-27 19:33:00,SystemResetWarning,0832.0,5.00,000.00,021.6,020.5,000.0,029.8,023.2,14.7,-002.0,0015.39,0008.12,0007.61
2023-10-27 19:34:00,SystemResetWarning,0832.0,5.00,000.00,021.6,020.5,000.0,029.8,023.2,14.6,-002.1,0015.88,0008.23,0007.68
2023-10-27 19:35:00,SystemResetWarning,0832.0,4.99,000.00,021.6,020.5,000.0,029.9,023.3,14.6,-002.3,0016.44,0008.31,0007.76
2023-10-27 19:36:00,SystemResetWarning,0831.9,5.00,000.00,021.6,020.5,000.0,029.9,023.4,14.6,-002.3,0016.24,0008.37,0007.82
2023-10-27 19:37:00,SystemResetWarning,0831.9,5.00,000.00,021.6,020.5,000.0,030.0,023.4,14.6,-002.1,0015.77,0008.39,0007.82
2023-10-27 19:38:00,SystemResetWarning,0831.8,5.00,000.00,021.6,020.6,000.0,030.0,023.4,14.5,-002.1,0015.99,0008.42,0007.81
2023-10-27 19:39:00,SystemResetWarning,0832.4,5.00,000.00,021.7,020.6,000.0,030.0,023.5,14.5,-001.7,0015.77,0008.42,0007.80
2023-10-27 19:40:00,SystemResetWarning,0831.8,5.00,000.00,021.7,020.6,000.0,030.0,023.5,14.5,-001.5,0015.02,0008.41,0007.80
2023-10-27 19:41:00,SystemResetWarning,0831.9,5.00,000.00,021.7,020.6,000.0,030.0,023.5,14.7,-001.0,0014.39,0008.42,0007.82
2023-10-27 19:42:00,SystemResetWarning,0831.8,5.00,000.00,021.7,020.6,000.0,030.0,023.5,14.8,-000.7,0014.07,0008.44,0007.85
2023-10-27 19:43:00,SystemResetWarning,0831.8,5.00,000.00,021.7,020.7,000.0,030.1,023.5,15.1,-000.8,0014.50,0008.49,0007.85
2023-10-27 19:44:00,SystemResetWarning,0831.7,5.00,000.00,021.7,020.7,000.0,030.1,023.5,15.2,-000.7,0013.89,0008.48,0007.87
2023-10-27 19:45:00,SystemResetWarning,0831.7,5.00,000.00,021.8,020.7,000.0,030.1,023.6,15.1,-001.1,0013.43,0008.47,0007.89
2023-10-27 19:46:00,SystemResetWarning,0831.9,4.99,000.00,021.8,020.7,000.0,030.1,023.6,15.2,-001.1,0013.29,0008.50,0007.89
2023-10-27 19:47:00,SystemResetWarning,0831.8,4.99,000.00,021.8,020.8,000.0,030.1,023.6,14.8,-001.5,0013.00,0008.50,0007.85
2023-10-27 19:48:00,SystemResetWarning,0831.8,5.00,000.00,021.8,020.7,000.0,030.1,023.5,14.6,-001.3,0012.86,0008.42,0007.78
2023-10-27 19:49:00,SystemResetWarning,0831.8,5.01,000.00,021.8,020.7,000.0,030.1,023.4,14.5,-000.9,0012.81,0008.34,0007.72
2023-10-27 19:50:00,SystemResetWarning,0831.7,5.01,000.00,021.7,020.6,000.0,030.1,023.3,14.6,-000.6,0012.79,0008.29,0007.68
2023-10-27 19:51:00,SystemResetWarning,0831.7,5.01,000.00,021.7,020.6,000.0,030.1,023.3,14.7,-001.0,0012.83,0008.26,0007.64
2023-10-27 19:52:00,SystemResetWarning,0831.6,5.00,000.00,021.7,020.6,000.0,030.1,023.3,14.8,-001.0,0012.64,0008.21,0007.60
2023-10-27 19:53:00,SystemResetWarning,0831.6,4.99,000.00,021.8,020.6,000.0,030.1,023.4,14.8,-001.1,0012.14,0008.12,0007.56
2023-10-27 19:54:00,SystemResetWarning,0831.6,5.00,000.00,021.8,020.7,000.0,030.1,023.4,15.1,-000.3,0011.37,0008.06,0007.53
2023-10-27 19:55:00,SystemResetWarning,0831.6,5.00,000.00,021.8,020.7,000.0,030.1,023.4,15.1,0000.8,0011.48,0008.04,0007.50
2023-10-27 19:56:00,SystemResetWarning,0831.6,5.00,000.00,021.8,020.7,000.0,030.1,023.4,15.0,0001.0,0011.43,0008.02,0007.45
2023-10-27 19:57:00,SystemResetWarning,0831.6,4.99,000.00,021.8,020.7,000.0,030.1,023.4,15.1,0000.5,0011.30,0007.97,0007.43
2023-10-27 19:58:00,SystemResetWarning,0831.6,5.00,000.00,021.8,020.7,000.0,030.1,023.4,15.0,0001.1,0011.11,0007.93,0007.41
2023-10-27 19:59:00,SystemResetWarning,0831.6,5.00,000.00,021.8,020.8,000.0,030.1,023.5,15.1,0000.7,0011.33,0007.97,0007.43
